Preview of NWS' New Version of Forecast
This preview is not operational and should not be used for support decisions.

Regional Weather Roundup (RWR)

Issued by Gray - Portland, ME (GYX)

                            
000
ASUS41 KGYX 201710
RWRGYX
WEATHER ROUNDUP FOR MAINE AND NEW HAMPSHIRE
NATIONAL WEATHER SERVICE GRAY ME
100 PM EDT THU JUN 20 2019

MEZ002-005-006-010-012-015-018-020-021-024-026-027-029-201800-
MAINE
  
CITY           SKY/WX    TMP DP  RH WIND       PRES   REMARKS
PORTLAND       RAIN      56  55  97 E7        29.68F FOG              
SANFORD        LGT RAIN  59  59 100 SE3       29.67F FOG              
BAR HARBOR     CLOUDY    56  55  97 E3        29.74F                  
WISCASSET      LGT RAIN  58  57  97 VRB6      29.71F VSB 1            
ROCKLAND       FOG       55  55 100 E6        29.72F VSB 1/4          
FRYEBURG       LGT RAIN  62  60  93 SE8       29.66F FOG              
LEWISTONAUBURN RAIN      61  60  97 SE3       29.67F FOG              
AUGUSTA        CLOUDY    62  60  93 SE6       29.70F                  
WATERVILLE     CLOUDY    63  61  93 CALM      29.67F                  
BANGOR         CLOUDY    62  60  93 SE10      29.72F FOG              
GREENVILLE       N/A     59  58  96 SE9       29.68F                  
MILLINOCKET    CLOUDY    62  59  90 CALM      29.72F FOG              
HOULTON        LGT RAIN  60  58  92 CALM      29.72S FOG              
PRESQUE ISLE   RAIN      59  58  96 SE7       29.73F                  
FRENCHVILLE    LGT RAIN  63  58  83 SE3       29.72S                  
CARIBOU        LGT RAIN  61  58  90 SE6       29.72S                  
$$

NHZ002-005-008-009-011-012-014-201800-
NEW HAMPSHIRE
  
CITY           SKY/WX    TMP DP  RH WIND       PRES   REMARKS
PORTSMOUTH     LGT RAIN  59  59 100 SE8       29.65F VSB 1            
ROCHESTER      LGT RAIN  61  59  93 SE5       29.66F FOG              
NASHUA         LGT RAIN  65  65 100 SE7       29.63F FOG              
MANCHESTER     LGT RAIN  66  64  93 E7        29.61F                  
CONCORD        HVY RAIN  63  61  93 E7        29.63F FOG              
LACONIA        LGT RAIN  64  62  93 NE7       29.63F FOG              
PLYMOUTH       LGT RAIN  64  62  93 E6        29.62F                  
BERLIN         RAIN      65  61  87 SE7       29.64F FOG              
WHITEFIELD     LGT RAIN  65  62  90 CALM      29.61F FOG              
JAFFREY        LGT RAIN  67  64  90 S7        29.63F FOG              
KEENE          LGT RAIN  69  66  90 S8        29.59F                  
LEBANON        CLOUDY    69  63  81 VRB6      29.57F                  
MT WASHINGTON  RAIN      50  50 100 S23         N/A  VSB 1/8          
$$

VTZ005-007-008-201800-
VERMONT
  
CITY           SKY/WX    TMP DP  RH WIND       PRES   REMARKS
ST JOHNSBURY     N/A     66  66 100 MISG      29.58F                  
MONTPELIER     RAIN      64  64 100 CALM      29.62F FOG              
BURLINGTON     HVY RAIN  68  66  93 NE3       29.55F FOG              
$$

MAZ007-012-024-CTZ003-RIZ002-NYZ038-NYZ072-201800-
SOUTHERN NEW ENGLAND AND NY
  
CITY           SKY/WX    TMP DP  RH WIND       PRES   REMARKS
BOSTON         FOG       64  62  93 E7        29.64F VSB 1/4          
WORCESTER      FOG       66  66 100 SE7       29.64F VSB 1/4          
NANTUCKET      FOG       64  62  93 SE14      29.67F VSB 1/2          
PROVIDENCE     LGT RAIN  65  65 100 S7        29.65F VSB 1/4          
HARTFORD       CLOUDY    71  68  90 S7        29.59F FOG              
ALBANY         CLOUDY    73  66  78 S15G25    29.54F                  
NEW YORK CITY  CLOUDY    72  70  93 SE10      29.57F FOG              
$$

ANZ081-ANZ082-ANZ150-NHZ014-MEZ023>029-201800-
COASTAL MARINE OBSERVATIONS
  
STATION/POSITION TIME  TEMP    WIND        PRES    WAVE
                       AIR SEA DIR/SP/G            HT/PER
                 (UTC) (F)     (DEG/KT/KT) (MB)    (FT/S)
ISLE OF SHOALS   1700   57     140/  6/  7 1004.0F
JEFFREYS LEDGE   1608      56                N/A     2/ 8
CASHES LEDGE BUO 1650   54 54  130/ 10/ 10 1005.9F   3/ 6
GEORGES BANK BUO 1650   55 51   30/  6/  8 1006.5F   3/ 7
$$

.............KEY..............
   WCI - WIND CHILL
   TC  - TEMPERATURE IN CELSIUS
   VSB - VISIBILITY IN MILES
   HX  - HEAT INDEX
   FAIR- INDICATES FEW OR NO CLOUDS BELOW 12,000 FT, WITH NO 
         SIGNIFICANT WEATHER AND/OR OBSTRUCTIONS TO VISIBILITY.